| time (UTC) | temp C | wind direction | speed KPH | gust KPH | rain 1hr cm | rain 24hr cm | rain mn cm | humidity % | barometer mb |
| 20260508071605 | 8 | 0.0 | 0.0 | 0.00 | 0.00 | 0.00 | 90 | 1012.7 | |
| 20260508070602 | 8 | 0.0 | 0.0 | 0.00 | 0.00 | 0.00 | 90 | 1012.7 | |
| 20260508065558 | 8 | 0.0 | 0.0 | 0.00 | 0.00 | 0.00 | 90 | 1012.5 | |
| 20260508064555 | 8 | 0.0 | 0.0 | 0.00 | 0.00 | 0.00 | 90 | 1012.6 | |
| 20260508063550 | 8 | 0.0 | 0.0 | 0.00 | 0.00 | 0.00 | 90 | 1012.5 | |
| 20260508062544 | 7 | 0.0 | 0.0 | 0.00 | 0.00 | 0.00 | 90 | 1012.4 | |
| 20260508061540 | 7 | 0.0 | 0.0 | 0.00 | 0.00 | 0.00 | 90 | 1012.5 | |
| 20260508060535 | 7 | 0.0 | 1.6 | 0.00 | 0.00 | 0.00 | 90 | 1012.3 | |
| 20260508055531 | 7 | 0.0 | 0.0 | 0.00 | 0.00 | 0.00 | 90 | 1012.1 | |
| 20260508054528 | 7 | 0.0 | 0.0 | 0.00 | 0.00 | 0.00 | 90 | 1012.1 | |
| 20260508053623 | 7 | 0.0 | 0.0 | 0.00 | 0.00 | 0.00 | 90 | 1011.9 | |
| 20260508052618 | 7 | 0.0 | 0.0 | 0.00 | 0.00 | 0.00 | 93 | 1012.0 | |
| 20260508051633 | 7 | 0.0 | 0.0 | 0.00 | 0.00 | 0.00 | 93 | 1011.8 | |
| 20260508050608 | 7 | 0.0 | 0.0 | 0.00 | 0.00 | 0.00 | 93 | 1012.0 | |
| 20260508045603 | 7 | 0.0 | 0.0 | 0.00 | 0.00 | 0.00 | 93 | 1011.9 | |
| 20260508044618 | 7 | 0.0 | 0.0 | 0.00 | 0.00 | 0.00 | 93 | 1011.8 | |
| 20260508043554 | 7 | 0.0 | 0.0 | 0.00 | 0.00 | 0.00 | 92 | 1011.9 | |
| 20260508042610 | 7 | 0.0 | 0.0 | 0.00 | 0.00 | 0.00 | 92 | 1011.9 | |
| 20260508041546 | 7 | 1.6 | 3.2 | 0.00 | 0.00 | 0.00 | 92 | 1011.7 | |
| 20260508040541 | 6 | 0.0 | 3.2 | 0.00 | 0.00 | 0.00 | 91 | 1011.8 | |
| 20260508035536 | 6 | 0.0 | 0.0 | 0.00 | 0.00 | 0.00 | 91 | 1011.9 | |
| 20260508034531 | 6 | 0.0 | 0.0 | 0.00 | 0.00 | 0.00 | 91 | 1011.9 | |
| 20260508033527 | 6 | 0.0 | 0.0 | 0.00 | 0.00 | 0.00 | 90 | 1011.9 | |
| 20260508032523 | 7 | 0.0 | 0.0 | 0.00 | 0.00 | 0.00 | 90 | 1011.9 | |
| 20260508031620 | 7 | 0.0 | 0.0 | 0.00 | 0.00 | 0.00 | 90 | 1011.9 | |
| 20260508030616 | 7 | 0.0 | 0.0 | 0.00 | 0.00 | 0.00 | 89 | 1011.8 | |
| 20260508025712 | 7 | 0.0 | 0.0 | 0.00 | 0.00 | 0.00 | 90 | 1011.8 | |
| 20260508024608 | 6 | 0.0 | 0.0 | 0.00 | 0.00 | 0.00 | 90 | 1011.9 | |
| 20260508023603 | 6 | 0.0 | 0.0 | 0.00 | 0.00 | 0.00 | 90 | 1011.9 | |
| 20260508022558 | 7 | 0.0 | 0.0 | 0.00 | 0.00 | 0.00 | 90 | 1011.9 | |
| 20260508021614 | 7 | 0.0 | 0.0 | 0.00 | 0.00 | 0.00 | 90 | 1011.8 | |
| 20260508020549 | 6 | 0.0 | 0.0 | 0.00 | 0.00 | 0.00 | 89 | 1011.7 | |
| 20260508015545 | 7 | 0.0 | 0.0 | 0.00 | 0.00 | 0.00 | 89 | 1011.7 | |
| 20260508014542 | 6 | 0.0 | 0.0 | 0.00 | 0.00 | 0.00 | 89 | 1011.7 | |
| 20260508013537 | 7 | 0.0 | 0.0 | 0.00 | 0.00 | 0.00 | 89 | 1011.8 | |
| 20260508012552 | 7 | 0.0 | 0.0 | 0.00 | 0.00 | 0.00 | 89 | 1011.8 | |
| 20260508011526 | 7 | 0.0 | 0.0 | 0.00 | 0.00 | 0.00 | 90 | 1011.8 | |
| 20260508010522 | 6 | 0.0 | 0.0 | 0.00 | 0.00 | 0.00 | 88 | 1011.9 | |
| 20260508005516 | 6 | 0.0 | 0.0 | 0.00 | 0.00 | 0.00 | 87 | 1012.0 | |
| 20260508004612 | 7 | 0.0 | 0.0 | 0.00 | 0.00 | 0.00 | 87 | 1012.0 | |
| 20260508003608 | 7 | 0.0 | 0.0 | 0.00 | 0.00 | 0.00 | 86 | 1012.0 | |
| 20260508002604 | 7 | 0.0 | 0.0 | 0.00 | 0.00 | 0.00 | 86 | 1012.1 | |
| 20260508001600 | 7 | 0.0 | 0.0 | 0.00 | 0.00 | 0.00 | 86 | 1012.2 | |
| 20260508000655 | 7 | 0.0 | 0.0 | 0.00 | 0.00 | 0.00 | 84 | 1012.1 | |
| 20260507235710 | 6 | 0.0 | 0.0 | 0.00 | 0.00 | 0.00 | 85 | 1012.3 | |
| 20260507234645 | 6 | 0.0 | 0.0 | 0.00 | 0.00 | 0.00 | 83 | 1012.3 | |
| 20260507233641 | 6 | 0.0 | 0.0 | 0.00 | 0.00 | 0.00 | 83 | 1012.2 | |
| 20260507232637 | 7 | 0.0 | 0.0 | 0.00 | 0.00 | 0.00 | 79 | 1012.2 | |
| 20260507231634 | 7 | 0.0 | 0.0 | 0.00 | 0.00 | 0.00 | 80 | 1012.1 | |
| 20260507230630 | 7 | 0.0 | 0.0 | 0.00 | 0.00 | 0.00 | 80 | 1012.1 | |
| 20260507225626 | 7 | 0.0 | 0.0 | 0.00 | 0.00 | 0.00 | 80 | 1012.0 | |
| 20260507224622 | 7 | 225 | 0.0 | 3.2 | 0.00 | 0.00 | 0.00 | 84 | 1012.0 |
| 20260507223617 | 7 | 0.0 | 0.0 | 0.00 | 0.00 | 0.00 | 83 | 1012.1 | |
| 20260507222612 | 7 | 225 | 0.0 | 3.2 | 0.00 | 0.00 | 0.00 | 79 | 1012.2 |
| 20260507221607 | 7 | 0.0 | 0.0 | 0.00 | 0.00 | 0.00 | 78 | 1012.1 | |
| 20260507220603 | 7 | 0.0 | 0.0 | 0.00 | 0.00 | 0.00 | 78 | 1012.1 | |
| 20260507215559 | 7 | 0.0 | 0.0 | 0.00 | 0.00 | 0.00 | 77 | 1012.1 | |
| 20260507214555 | 8 | 0.0 | 0.0 | 0.00 | 0.00 | 0.00 | 76 | 1012.3 | |
| 20260507213651 | 8 | 0.0 | 0.0 | 0.00 | 0.00 | 0.00 | 75 | 1012.2 | |
| 20260507212645 | 8 | 0.0 | 0.0 | 0.00 | 0.00 | 0.00 | 75 | 1012.1 | |
| 20260507211640 | 8 | 0.0 | 0.0 | 0.00 | 0.00 | 0.00 | 74 | 1012.1 | |
| 20260507210635 | 8 | 331 | 1.6 | 3.2 | 0.00 | 0.00 | 0.00 | 75 | 1011.9 |
| 20260507205630 | 9 | 329 | 3.2 | 6.4 | 0.00 | 0.00 | 0.00 | 75 | 1011.9 |
| 20260507204625 | 9 | 0 | 1.6 | 3.2 | 0.00 | 0.00 | 0.00 | 73 | 1011.9 |
| 20260507203641 | 9 | 205 | 3.2 | 6.4 | 0.00 | 0.00 | 0.00 | 74 | 1011.8 |
| 20260507202617 | 9 | 315 | 3.2 | 6.4 | 0.00 | 0.00 | 0.00 | 74 | 1011.7 |
| 20260507201614 | 10 | 315 | 1.6 | 1.6 | 0.00 | 0.00 | 0.00 | 73 | 1011.5 |
| 20260507200609 | 10 | 86 | 1.6 | 3.2 | 0.00 | 0.00 | 0.00 | 73 | 1011.4 |
| 20260507195604 | 10 | 90 | 1.6 | 4.8 | 0.00 | 0.00 | 0.00 | 71 | 1011.2 |
| 20260507194559 | 10 | 90 | 1.6 | 3.2 | 0.00 | 0.00 | 0.00 | 71 | 1011.3 |
| 20260507193615 | 11 | 90 | 1.6 | 3.2 | 0.00 | 0.00 | 0.00 | 70 | 1011.4 |
| 20260507192550 | 11 | 90 | 3.2 | 3.2 | 0.00 | 0.00 | 0.00 | 70 | 1011.2 |
| 20260507191647 | 11 | 120 | 3.2 | 4.8 | 0.00 | 0.00 | 0.00 | 67 | 1011.3 |
| 20260507190643 | 12 | 0.0 | 0.0 | 0.00 | 0.00 | 0.00 | 63 | 1011.2 | |
| 20260507185639 | 11 | 0.0 | 0.0 | 0.00 | 0.00 | 0.00 | 68 | 1011.1 | |
| 20260507184635 | 11 | 0.0 | 0.0 | 0.00 | 0.00 | 0.00 | 68 | 1011.0 | |
| 20260507183631 | 11 | 0.0 | 0.0 | 0.00 | 0.00 | 0.00 | 68 | 1011.0 | |
| 20260507182626 | 11 | 279 | 1.6 | 3.2 | 0.00 | 0.00 | 0.00 | 68 | 1011.0 |
| 20260507181641 | 11 | 295 | 4.8 | 6.4 | 0.00 | 0.00 | 0.00 | 68 | 1011.1 |
| 20260507180617 | 11 | 275 | 4.8 | 6.4 | 0.00 | 0.00 | 0.00 | 69 | 1010.9 |
| 20260507175613 | 12 | 315 | 3.2 | 6.4 | 0.00 | 0.00 | 0.00 | 70 | 1011.0 |
| 20260507174609 | 11 | 280 | 4.8 | 8.0 | 0.00 | 0.00 | 0.00 | 70 | 1011.0 |
| 20260507173604 | 12 | 282 | 4.8 | 6.4 | 0.00 | 0.00 | 0.00 | 70 | 1011.0 |
| 20260507172559 | 12 | 270 | 3.2 | 4.8 | 0.00 | 0.00 | 0.00 | 70 | 1011.0 |
| 20260507171554 | 13 | 270 | 4.8 | 6.4 | 0.00 | 0.00 | 0.00 | 63 | 1010.9 |
| 20260507170549 | 12 | 0.0 | 3.2 | 0.00 | 0.00 | 0.00 | 64 | 1011.0 | |
| 20260507165644 | -17 | 0.0 | 0.0 | 0.00 | 0.00 | 0.00 | 1010.9 | ||
| 20260507164700 | -17 | 0.0 | 0.0 | 0.00 | 0.00 | 0.00 | 1010.9 | ||
| 20260507163635 | 13 | 293 | 6.4 | 6.4 | 0.00 | 0.00 | 0.00 | 59 | 1010.7 |
| 20260507162631 | 13 | 213 | 9.7 | 12.9 | 0.00 | 0.00 | 0.00 | 58 | 1010.8 |
| 20260507161628 | 13 | 180 | 11.3 | 12.9 | 0.00 | 0.00 | 0.00 | 57 | 1010.8 |
| 20260507160623 | 12 | 180 | 12.9 | 14.5 | 0.00 | 0.00 | 0.00 | 57 | 1010.7 |
| 20260507155618 | 12 | 180 | 6.4 | 14.5 | 0.00 | 0.00 | 0.00 | 58 | 1010.8 |
| 20260507154613 | 12 | 180 | 12.9 | 17.7 | 0.00 | 0.00 | 0.00 | 57 | 1010.8 |
| 20260507153609 | 12 | 180 | 12.9 | 16.1 | 0.00 | 0.00 | 0.00 | 59 | 1010.8 |
| 20260507152604 | 12 | 171 | 11.3 | 16.1 | 0.00 | 0.00 | 0.00 | 59 | 1010.8 |
| 20260507151601 | 12 | 219 | 11.3 | 14.5 | 0.00 | 0.00 | 0.00 | 61 | 1010.9 |
| 20260507150557 | -17 | 0.0 | 0.0 | 0.00 | 0.00 | 0.00 | 1010.9 | ||
| 20260507145553 | 12 | 180 | 6.4 | 6.4 | 0.00 | 0.00 | 0.00 | 63 | 1010.9 |
| 20260507144549 | 12 | 135 | 6.4 | 11.3 | 0.00 | 0.00 | 0.00 | 63 | 1010.9 |
| 20260507143545 | -17 | 0.0 | 0.0 | 0.00 | 0.00 | 0.00 | 1011.0 | ||
| 20260507142640 | -17 | 0.0 | 0.0 | 0.00 | 0.00 | 0.00 | 1011.2 | ||
| 20260507141635 | -17 | 0.0 | 0.0 | 0.00 | 0.00 | 0.00 | 1011.3 | ||
| 20260507140631 | -17 | 0.0 | 0.0 | 0.00 | 0.00 | 0.00 | 1011.3 | ||
| 20260507135626 | -17 | 0.0 | 0.0 | 0.00 | 0.00 | 0.00 | 1011.4 | ||
| 20260507134643 | -17 | 0.0 | 0.0 | 0.00 | 0.00 | 0.00 | 1011.3 | ||
| 20260507133618 | -17 | 0.0 | 0.0 | 0.00 | 0.00 | 0.00 | 1011.3 | ||
| 20260507132613 | 13 | 135 | 12.9 | 17.7 | 0.00 | 0.00 | 0.00 | 60 | 1011.4 |
| 20260507131608 | 12 | 180 | 12.9 | 16.1 | 0.00 | 0.00 | 0.00 | 62 | 1011.5 |
| 20260507130603 | -17 | 0.0 | 0.0 | 0.00 | 0.00 | 0.00 | 1011.5 | ||
| 20260507125617 | -17 | 0.0 | 0.0 | 0.00 | 0.00 | 0.00 | 1011.5 | ||
| 20260507124553 | -17 | 0.0 | 0.0 | 0.00 | 0.00 | 0.00 | 1011.4 | ||
| 20260507123629 | -17 | 0.0 | 0.0 | 0.00 | 0.00 | 0.00 | 1011.4 | ||
| 20260507122545 | 13 | 135 | 8.0 | 11.3 | 0.00 | 0.00 | 0.00 | 60 | 1011.4 |
| 20260507121541 | -17 | 0.0 | 0.0 | 0.00 | 0.00 | 0.00 | 1011.4 | ||
| 20260507120536 | 13 | 180 | 16.1 | 20.9 | 0.00 | 0.00 | 0.00 | 60 | 1011.5 |
| 20260507115631 | 13 | 135 | 11.3 | 12.9 | 0.00 | 0.00 | 0.00 | 59 | 1011.4 |
| 20260507114626 | 13 | 151 | 11.3 | 12.9 | 0.00 | 0.00 | 0.00 | 59 | 1011.4 |
| 20260507113622 | 13 | 158 | 9.7 | 12.9 | 0.00 | 0.00 | 0.00 | 60 | 1011.6 |
| 20260507112618 | 13 | 118 | 8.0 | 12.9 | 0.00 | 0.00 | 0.00 | 60 | 1011.6 |
| 20260507111614 | 13 | 159 | 8.0 | 12.9 | 0.00 | 0.00 | 0.00 | 61 | 1011.7 |
| 20260507110630 | 12 | 130 | 8.0 | 12.9 | 0.00 | 0.00 | 0.00 | 64 | 1011.9 |
| 20260507105606 | 11 | 146 | 8.0 | 11.3 | 0.00 | 0.00 | 0.00 | 67 | 1011.9 |
| 20260507104602 | 11 | 169 | 9.7 | 12.9 | 0.00 | 0.00 | 0.00 | 68 | 1012.1 |
| 20260507103558 | 11 | 156 | 6.4 | 9.7 | 0.00 | 0.00 | 0.00 | 70 | 1012.0 |
| 20260507102613 | 11 | 111 | 1.6 | 6.4 | 0.00 | 0.00 | 0.00 | 70 | 1012.1 |
| 20260507101548 | 11 | 135 | 4.8 | 8.0 | 0.00 | 0.00 | 0.00 | 71 | 1012.1 |
| 20260507100544 | 10 | 135 | 3.2 | 3.2 | 0.00 | 0.00 | 0.00 | 74 | 1012.2 |
| 20260507095540 | 10 | 135 | 4.8 | 6.4 | 0.00 | 0.00 | 0.00 | 75 | 1012.1 |
| 20260507094537 | 10 | 135 | 4.8 | 6.4 | 0.00 | 0.00 | 0.00 | 76 | 1012.0 |
| 20260507093631 | 10 | 96 | 6.4 | 8.0 | 0.00 | 0.00 | 0.00 | 76 | 1012.0 |
| 20260507092626 | 10 | 90 | 3.2 | 4.8 | 0.00 | 0.00 | 0.00 | 78 | 1011.9 |
| 20260507091621 | 9 | 1.6 | 6.4 | 0.00 | 0.00 | 0.00 | 80 | 1011.9 | |
| 20260507090616 | 9 | 293 | 3.2 | 6.4 | 0.00 | 0.00 | 0.00 | 80 | 1012.0 |
| 20260507085611 | 8 | 90 | 1.6 | 3.2 | 0.00 | 0.00 | 0.00 | 81 | 1011.9 |
| 20260507084606 | 8 | 3.2 | 6.4 | 0.00 | 0.00 | 0.00 | 82 | 1012.0 | |
| 20260507083742 | 8 | 90 | 1.6 | 3.2 | 0.00 | 0.00 | 0.00 | 82 | 1012.0 |
| 20260507082559 | 8 | 90 | 3.2 | 4.8 | 0.00 | 0.00 | 0.00 | 83 | 1011.9 |
| 20260507081555 | 7 | 90 | 3.2 | 6.4 | 0.00 | 0.00 | 0.00 | 83 | 1011.9 |
| 20260507080550 | 7 | 90 | 3.2 | 4.8 | 0.00 | 0.00 | 0.00 | 84 | 1011.9 |
| 20260507075545 | 7 | 90 | 1.6 | 4.8 | 0.00 | 0.00 | 0.00 | 84 | 1011.8 |
| 20260507074600 | 7 | 90 | 1.6 | 4.8 | 0.00 | 0.00 | 0.00 | 84 | 1011.8 |
| 20260507073536 | 7 | 90 | 1.6 | 4.8 | 0.00 | 0.00 | 0.00 | 84 | 1011.8 |
| 20260507072612 | 7 | 90 | 1.6 | 3.2 | 0.00 | 0.00 | 0.00 | 90 | 1011.8 |